Location: Sabalos
(43.2860°N, 0.1414°E)
Time: 03:15:43
(UTC+00:00)

Okean 3 Rocket - Pass Details

Date: 05 July 2020
Orbit: 614 x 645 km, 82.5° (Epoch: 06 August)

Event Time Altitude Azimuth Distance (km) Brightness Sun altitude
Exits shadow 22:47:02 36° 95° (E) 1,001 4.4 -21.7°
Maximum altitude 22:47:09 36° 91° (E) 1,000 4.4 -21.7°
Drops below altitude 10° 22:51:13 10° 25° (NNE) 2,009 6.8 -21.9°
Sets 22:53:34 0° 17° (NNE) 2,915 7.9 -22.1°
